Date String (YYYY-MM-DD hh:mm:ss) UTC,Instrument flags,absolute air pressure of the measurement (hPa),sample flow rate (lpm),inlet stack bypass flow (lpm),air temperature of the measurement (°C),ambient temperature measured by the external sensor (°C),aerosol sample conditioner tube jacket temperature (°C),OPC LED temperature (°C),internal box temperature (°C),relative humidity of the measurement (%),span deviation,mass concentration of particles derived from Lorenz-Mie calculation of OPC scattering (μg/m³),mass concentration of particles derived from Lorenz-Mie calculation of OPC scattering (μg/m³),mass concentration of particles derived from Lorenz-Mie calculation of OPC scattering (μg/m³)
DateTimeUTC,F1_M11,P_M11,Q1_M11,Q2_M11,T1_M11,T2_M11,T3_M11,T4_M11,T5_M11,U1_M11,ZSPAN_M11,X0_M11,X2_M11,X1_M11
2023-10-23 14:00:00,SystemResetWarning,0823.6,5.00,000.00,028.5,027.0,000.0,036.9,030.2,12.0,0000.0,0012.88,0005.10,0004.06
2023-10-23 14:01:00,SystemResetWarning,0823.7,5.00,000.00,028.5,027.0,000.0,036.9,030.2,12.0,0000.0,0012.63,0005.03,0004.06
2023-10-23 14:02:00,SystemResetWarning,0823.7,5.00,000.00,028.5,027.0,000.0,036.9,030.2,12.0,0000.0,0012.50,0005.01,0004.07
2023-10-23 14:03:00,SystemResetWarning,0823.7,5.00,000.00,028.5,027.0,000.0,036.9,030.1,12.1,0000.0,0012.44,0004.97,0004.06
2023-10-23 14:04:00,SystemResetWarning,0823.7,5.00,000.00,028.5,027.0,000.0,036.9,030.2,12.2,0000.0,0012.03,0004.97,0004.05
2023-10-23 14:05:00,SystemResetWarning,0823.7,5.00,000.00,028.5,027.0,000.0,036.9,030.1,12.1,0000.0,0011.71,0004.97,0004.05
2023-10-23 14:06:00,SystemResetWarning,0823.7,5.00,000.00,028.5,027.0,000.0,036.9,030.2,12.1,0000.0,0011.55,0005.02,0004.04
2023-10-23 14:07:00,SystemResetWarning,0823.7,5.00,000.00,028.5,027.0,000.0,036.9,030.2,11.9,0000.0,0011.86,0005.01,0004.03
2023-10-23 14:08:00,SystemResetWarning,0823.7,5.00,000.00,028.5,027.0,000.0,036.9,030.2,11.5,0000.0,0012.19,0005.01,0004.04
2023-10-23 14:09:00,SystemResetWarning,0823.7,5.00,000.00,028.5,027.0,000.0,036.9,030.2,11.8,0000.0,0011.52,0005.09,0004.06
2023-10-23 14:10:00,SystemResetWarning,0823.8,5.00,000.00,028.5,027.1,000.0,036.9,030.2,12.2,0000.0,0011.10,0005.11,0004.08
2023-10-23 14:11:00,SystemResetWarning,0823.8,5.00,000.00,028.6,027.1,000.0,037.0,030.2,12.0,0000.0,0011.00,0005.06,0004.10
2023-10-23 14:12:00,SystemResetWarning,0823.8,5.00,000.00,028.6,027.1,000.0,037.0,030.2,11.9,0000.0,0011.57,0005.08,0004.11
2023-10-23 14:13:00,SystemResetWarning,0823.8,5.00,000.00,028.6,027.1,000.0,037.0,030.2,11.9,0000.0,0012.55,0005.09,0004.13
2023-10-23 14:14:00,SystemResetWarning,0823.8,5.00,000.00,028.6,027.1,000.0,037.0,030.2,11.8,0000.0,0013.31,0005.07,0004.15
2023-10-23 14:15:00,SystemResetWarning,0823.8,5.00,000.00,028.6,027.1,000.0,037.0,030.2,11.6,0000.0,0013.46,0005.07,0004.16
2023-10-23 14:16:00,SystemResetWarning,0823.8,5.01,000.00,028.6,027.1,000.0,037.0,030.2,11.5,0000.0,0013.89,0005.08,0004.18
2023-10-23 14:17:00,SystemResetWarning,0823.8,5.00,000.00,028.6,027.1,000.0,037.0,030.2,11.4,0000.0,0014.19,0005.04,0004.19
2023-10-23 14:18:00,SystemResetWarning,0823.8,4.99,000.00,028.6,027.1,000.0,037.0,030.2,11.4,0000.0,0013.83,0005.08,0004.20
2023-10-23 14:19:00,SystemResetWarning,0823.8,5.01,000.00,028.6,027.2,000.0,037.0,030.2,11.4,0000.0,0013.47,0005.07,0004.20
2023-10-23 14:20:00,SystemResetWarning,0823.8,4.99,000.00,028.6,027.2,000.0,037.0,030.3,11.3,0000.0,0012.93,0005.03,0004.19
2023-10-23 14:21:00,SystemResetWarning,0823.8,5.00,000.00,028.6,027.2,000.0,037.0,030.3,11.3,0000.0,0012.92,0004.98,0004.19
2023-10-23 14:22:00,SystemResetWarning,0823.8,5.01,000.00,028.6,027.2,000.0,037.0,030.3,11.4,0000.0,0012.93,0004.98,0004.18
2023-10-23 14:23:00,SystemResetWarning,0823.8,5.01,000.00,028.6,027.2,000.0,037.0,030.3,11.5,0000.0,0013.08,0004.97,0004.18
2023-10-23 14:24:00,SystemResetWarning,0823.8,5.00,000.00,028.7,027.3,000.0,037.0,030.3,12.0,0000.0,0012.67,0004.98,0004.18
2023-10-23 14:25:00,SystemResetWarning,0823.8,5.00,000.00,028.7,027.3,000.0,037.0,030.3,12.4,0000.0,0011.83,0005.02,0004.20
2023-10-23 14:26:00,SystemResetWarning,0823.8,5.00,000.00,028.7,027.3,000.0,037.1,030.3,12.0,0000.0,0011.59,0005.03,0004.20
2023-10-23 14:27:00,SystemResetWarning,0823.8,4.99,000.00,028.7,027.3,000.0,037.1,030.3,11.9,0000.0,0011.08,0005.02,0004.20
2023-10-23 14:28:00,SystemResetWarning,0823.8,5.00,000.00,028.7,027.3,000.0,037.1,030.3,12.6,0000.0,0010.44,0005.02,0004.20
2023-10-23 14:29:00,SystemResetWarning,0823.8,5.00,000.00,028.7,027.3,000.0,037.1,030.3,12.4,0000.0,0010.34,0005.00,0004.21
2023-10-23 14:30:00,SystemResetWarning,0823.8,5.01,000.00,028.7,027.3,000.0,037.1,030.3,12.5,0000.0,0010.63,0005.02,0004.22
2023-10-23 14:31:00,SystemResetWarning,0823.8,5.00,000.00,028.7,027.3,000.0,037.1,030.3,12.5,0000.0,0010.80,0005.04,0004.22
2023-10-23 14:32:00,SystemResetWarning,0823.8,5.01,000.00,028.7,027.3,000.0,037.1,030.3,12.5,0000.0,0010.65,0005.06,0004.25
2023-10-23 14:33:00,SystemResetWarning,0823.8,5.01,000.00,028.7,027.3,000.0,037.1,030.3,12.5,0000.0,0010.36,0005.05,0004.25
2023-10-23 14:34:00,SystemResetWarning,0823.8,4.99,000.00,028.7,027.3,000.0,037.1,030.3,12.5,0000.0,0009.97,0005.02,0004.25
2023-10-23 14:35:00,SystemResetWarning,0823.8,5.00,000.00,028.8,027.4,000.0,037.1,030.3,12.6,0000.0,0009.36,0004.99,0004.23
2023-10-23 14:36:00,SystemResetWarning,0823.8,5.00,000.00,028.8,027.4,000.0,037.1,030.4,12.4,0000.0,0009.14,0004.98,0004.23
2023-10-23 14:37:00,SystemResetWarning,0823.8,5.00,000.00,028.8,027.4,000.0,037.2,030.4,12.5,0000.0,0009.11,0004.97,0004.22
2023-10-23 14:38:00,SystemResetWarning,0823.8,5.00,000.00,028.8,027.4,000.0,037.2,030.4,12.3,0000.0,0009.09,0004.97,0004.23
2023-10-23 14:39:00,SystemResetWarning,0823.9,5.01,000.00,028.8,027.4,000.0,037.2,030.4,12.2,0000.0,0009.19,0004.98,0004.23
2023-10-23 14:40:00,SystemResetWarning,0823.9,5.00,000.00,028.8,027.5,000.0,037.2,030.4,12.6,0000.0,0009.41,0005.00,0004.23
2023-10-23 14:41:00,SystemResetWarning,0823.9,5.00,000.00,028.8,027.5,000.0,037.2,030.5,12.9,0000.0,0009.31,0005.01,0004.21
2023-10-23 14:42:00,SystemResetWarning,0823.9,5.01,000.00,028.9,027.5,000.0,037.2,030.5,13.0,0000.0,0009.06,0004.98,0004.21
2023-10-23 14:43:00,SystemResetWarning,0823.9,5.00,000.00,028.9,027.5,000.0,037.2,030.5,12.9,0000.0,0009.43,0004.99,0004.20
2023-10-23 14:44:00,SystemResetWarning,0823.9,5.00,000.00,028.9,027.6,000.0,037.2,030.5,12.6,0000.0,0009.73,0004.96,0004.18
2023-10-23 14:45:00,SystemResetWarning,0824.0,5.00,000.00,028.9,027.6,000.0,037.2,030.5,12.6,0000.0,0009.72,0004.96,0004.17
2023-10-23 14:46:00,SystemResetWarning,0823.9,5.00,000.00,028.9,027.6,000.0,037.3,030.5,12.6,0000.0,0009.75,0004.97,0004.15
2023-10-23 14:47:00,SystemResetWarning,0823.9,4.99,000.00,028.9,027.6,000.0,037.3,030.5,13.1,0000.0,0009.81,0004.95,0004.12
2023-10-23 14:48:00,SystemResetWarning,0823.9,5.00,000.00,028.9,027.6,000.0,037.3,030.6,13.0,0000.0,0010.24,0004.92,0004.10
2023-10-23 14:49:00,SystemResetWarning,0823.9,4.99,000.00,028.9,027.6,000.0,037.3,030.5,12.9,0000.0,0010.32,0004.93,0004.09
2023-10-23 14:50:00,SystemResetWarning,0824.0,5.00,000.00,029.0,027.7,000.0,037.3,030.6,12.7,0000.0,0010.38,0004.93,0004.07
2023-10-23 14:51:00,SystemResetWarning,0824.0,5.00,000.00,029.0,027.7,000.0,037.3,030.6,12.8,0000.0,0010.20,0004.90,0004.05
2023-10-23 14:52:00,SystemResetWarning,0824.0,5.00,000.00,029.0,027.7,000.0,037.3,030.6,12.6,0000.0,0010.03,0004.87,0004.03
2023-10-23 14:53:00,SystemResetWarning,0823.9,5.00,000.00,029.0,027.7,000.0,037.3,030.6,12.7,0000.0,0010.10,0004.84,0004.00
2023-10-23 14:54:00,SystemResetWarning,0823.9,5.00,000.00,029.0,027.7,000.0,037.4,030.6,12.8,0000.0,0009.78,0004.80,0003.97
2023-10-23 14:55:00,SystemResetWarning,0824.0,5.00,000.00,029.0,027.7,000.0,037.4,030.6,13.0,0000.0,0009.46,0004.76,0003.95
2023-10-23 14:56:00,SystemResetWarning,0824.0,5.00,000.00,029.0,027.7,000.0,037.4,030.7,12.9,0000.0,0009.41,0004.74,0003.94
2023-10-23 14:57:00,SystemResetWarning,0824.0,5.00,000.00,029.0,027.7,000.0,037.4,030.7,12.9,0000.0,0009.91,0004.77,0003.93
2023-10-23 14:58:00,SystemResetWarning,0823.9,5.00,000.00,029.0,027.7,000.0,037.4,030.7,13.0,0000.0,0010.10,0004.78,0003.92
2023-10-23 14:59:00,SystemResetWarning,0824.0,5.00,000.00,029.1,027.7,000.0,037.4,030.7,12.8,0000.0,0009.68,0004.80,0003.90
